Home   Weather   30°03'N, 94°12'W   Past weeks
Flag for USA

Past Weather in 30°03'N, 94°12'W, USA — Yesterday and Last 2 Weeks

Now
80 °F

Passing clouds.


Feels Like: 85 °F
Forecast: 79 / 63 °F
Wind: 13 mph from South

Location: Jefferson County Airport

Current Time: Oct 21, 2019 at 3:14:56 am

Latest Report: Oct 21, 2019 at 1:53 am


Visibility: 10 mi

Pressure: 29.73 "Hg

Humidity: 87%

Dew Point: 76 °F

Location of 30°03'N, 94°12'WLocation

Past Weather in 30°03'N, 94°12'W — Graph

°F

30°03'N, 94°12'W Temperature Yesterday

Maximum temperature yesterday: 88 °F (at 12:53 pm)
Minimum temperature yesterday: 73 °F (at 6:53 am)
Average temperature yesterday: 79 °F

High & Low Weather Summary for the Past Weeks

 TemperatureHumidityPressure
High92 °F (Oct 7, 1:35 pm)100% (Oct 20, 7:12 am)30.16 "Hg (Oct 20, 7:12 am)
Low55 °F (Oct 11, 9:53 pm)42% (Oct 12, 1:53 pm)29.72 "Hg (Oct 19, 3:53 pm)
Average74 °F80%29.94 "Hg
* Reported Oct 6 1:07 am — Oct 21 1:53 am, 30°03'N, 94°12'W. Weather by CustomWeather, © 2019

Note: Actual official high and low records may vary slightly from our data, if they occured in-between our weather recording intervals... More about our weather records

Advertising

30°03'N, 94°12'W Weather History for the Previous 24 Hours

Scroll right to see more
 ConditionsComfort  
Time TempWeatherWind HumidityBarometerVisibility
1:53 am
Mon, Oct 21
80 °FPassing clouds.13 mph87%29.73 "Hg10 mi
12:53 am80 °FClear.13 mph87%29.76 "Hg10 mi
11:53 pm
Sun, Oct 20
80 °FClear.15 mph87%29.77 "Hg10 mi
10:53 pm80 °FClear.12 mph87%29.78 "Hg10 mi
9:53 pm80 °FClear.13 mph87%29.78 "Hg10 mi
8:53 pm80 °FClear.12 mph87%29.79 "Hg9 mi
7:53 pm79 °FPassing clouds.8 mph90%29.79 "Hg10 mi
6:53 pm80 °FClear.8 mph87%29.78 "Hg10 mi
5:53 pm83 °FPassing clouds.13 mph77%29.78 "Hg10 mi
4:53 pm86 °FPartly sunny.14 mph72%29.78 "Hg10 mi
3:53 pm86 °FPartly sunny.15 mph72%29.78 "Hg10 mi
2:53 pm87 °FPartly sunny.15 mph69%29.79 "Hg10 mi
1:53 pm88 °FPartly sunny.16 mph67%29.80 "Hg10 mi
12:53 pm88 °FPartly sunny.15 mph70%29.82 "Hg10 mi
11:53 am84 °FPartly sunny.6 mph85%29.85 "Hg10 mi
11:27 am82 °FMostly cloudy.3 mph85%29.85 "Hg10 mi
10:53 am80 °FLight rain. Partly sunny.9 mph79%29.85 "Hg10 mi
9:53 am84 °FPartly sunny.9 mph83%29.85 "Hg10 mi
8:53 am79 °FPassing clouds.7 mph94%29.84 "Hg10 mi
8:02 am75 °FFog.3 mph96%29.82 "Hg6 mi
8:00 am75 °FFog.3 mph96%29.82 "Hg0 mi
7:38 am74 °FFog.3 mph97%29.82 "Hg4 mi
7:12 am73 °FFog.5 mph100%29.82 "Hg4 mi
6:53 am73 °FFog.5 mph97%29.82 "Hg5 mi
5:57 am74 °FFog.3 mph97%29.81 "Hg5 mi
5:27 am74 °FFog.No wind97%29.80 "Hg1 mi
5:24 am74 °FFog.No wind97%29.80 "Hg2 mi
4:53 am75 °FOvercast.No wind96%29.79 "Hg8 mi
3:53 am76 °FClear.5 mph94%29.78 "Hg10 mi
Weather by CustomWeather, © 2019

See weather overview